Grub im Wienerwald
Wetterdaten: aktuell Samstag, 18.11.2017 12:42
Datum Zeit Temp. A. Feuchte A. Luftdruck Regen Wind Richtung Richtung Sonnenschein UV Solar Taupunkt Windchill Windben
18.11.2017 12:42 6,7 C 79 % 1019,3 hPa 0,0 l/m 9,6 km/h NW 321 0 min 1,0 UV-I 178 W/m 3,3 C 4,2 C 16,1 km/h
18.11.2017 12:39 6,7 C 79 % 1019,4 hPa 0,0 l/m 12,9 km/h NW 324 0 min 1,0 UV-I 202 W/m 3,3 C 2,2 C 20,9 km/h
18.11.2017 12:36 6,7 C 79 % 1019,4 hPa 0,0 l/m 8,9 km/h N-NW 343 3 min 1,0 UV-I 220 W/m 3,3 C 4,7 C 14,5 km/h
18.11.2017 12:33 6,6 C 79 % 1019,4 hPa 0,0 l/m 8,3 km/h W 270 0 min 1,0 UV-I 202 W/m 3,2 C 5,1 C 17,7 km/h
18.11.2017 12:30 6,6 C 79 % 1019,4 hPa 0,0 l/m 8,2 km/h W-NW 296 3 min 1,0 UV-I 227 W/m 3,2 C 5,1 C 16,1 km/h
18.11.2017 12:27 6,7 C 78 % 1019,5 hPa 0,0 l/m 7,7 km/h W 275 3 min 1,0 UV-I 258 W/m 3,1 C 5,6 C 14,5 km/h
18.11.2017 12:24 6,7 C 78 % 1019,5 hPa 0,0 l/m 7,0 km/h W 265 0 min 1,0 UV-I 192 W/m 3,1 C 6,2 C 16,1 km/h
18.11.2017 12:21 6,7 C 79 % 1019,5 hPa 0,0 l/m 10,4 km/h W-NW 288 3 min 1,0 UV-I 213 W/m 3,3 C 3,7 C 20,9 km/h
18.11.2017 12:18 6,8 C 78 % 1019,5 hPa 0,0 l/m 10,4 km/h NW 319 0 min 1,0 UV-I 188 W/m 3,2 C 3,8 C 19,3 km/h
18.11.2017 12:15 6,9 C 78 % 1019,6 hPa 0,0 l/m 6,9 km/h W-NW 300 0 min 1,0 UV-I 176 W/m 3,3 C 6,5 C 14,5 km/h
18.11.2017 12:12 6,9 C 78 % 1019,6 hPa 0,0 l/m 5,7 km/h W-NW 298 0 min 0,9 UV-I 169 W/m 3,3 C 6,9 C 11,3 km/h
18.11.2017 12:09 6,9 C 78 % 1019,6 hPa 0,0 l/m 6,9 km/h W-SW 254 0 min 0,9 UV-I 165 W/m 3,3 C 6,5 C 19,3 km/h
18.11.2017 12:06 7,0 C 78 % 1019,7 hPa 0,0 l/m 7,8 km/h W 271 0 min 0,9 UV-I 174 W/m 3,4 C 5,9 C 22,5 km/h
18.11.2017 12:03 7,0 C 78 % 1019,6 hPa 0,0 l/m 6,9 km/h NW 316 3 min 1,0 UV-I 232 W/m 3,4 C 6,6 C 14,5 km/h
18.11.2017 12:00 7,0 C 78 % 1019,7 hPa 0,0 l/m 7,9 km/h W-NW 293 3 min 1,1 UV-I 366 W/m 3,4 C 5,8 C 19,3 km/h
18.11.2017 11:57 6,9 C 79 % 1019,7 hPa 0,0 l/m 7,9 km/h NW 320 3 min 1,1 UV-I 258 W/m 3,5 C 5,7 C 19,3 km/h
18.11.2017 11:54 6,9 C 78 % 1019,8 hPa 0,0 l/m 10,9 km/h W 273 3 min 1,2 UV-I 318 W/m 3,3 C 3,6 C 20,9 km/h
18.11.2017 11:51 6,9 C 78 % 1019,8 hPa 0,0 l/m 12,8 km/h N-NW 329 3 min 1,2 UV-I 301 W/m 3,3 C 2,5 C 19,3 km/h
18.11.2017 11:48 6,8 C 78 % 1019,8 hPa 0,0 l/m 14,7 km/h NW 318 3 min 1,4 UV-I 436 W/m 3,2 C 1,4 C 22,5 km/h
18.11.2017 11:45 6,8 C 79 % 1019,8 hPa 0,0 l/m 7,6 km/h N 355 3 min 1,3 UV-I 441 W/m 3,4 C 5,8 C 17,7 km/h
18.11.2017 11:42 6,7 C 79 % 1019,9 hPa 0,0 l/m 7,8 km/h NW 324 3 min 1,3 UV-I 265 W/m 3,3 C 5,5 C 17,7 km/h
18.11.2017 11:39 6,7 C 78 % 1019,9 hPa 0,0 l/m 6,3 km/h NW 319 3 min 1,2 UV-I 220 W/m 3,1 C 6,7 C 9,7 km/h
18.11.2017 11:36 6,7 C 78 % 1020,0 hPa 0,0 l/m 9,2 km/h W 273 0 min 1,2 UV-I 211 W/m 3,1 C 4,5 C 19,3 km/h
18.11.2017 11:33 6,7 C 78 % 1020,0 hPa 0,0 l/m 7,8 km/h W-NW 282 3 min 1,2 UV-I 229 W/m 3,1 C 5,5 C 20,9 km/h
18.11.2017 11:30 6,7 C 78 % 1020,1 hPa 0,0 l/m 7,4 km/h NW 318 3 min 1,2 UV-I 274 W/m 3,1 C 5,9 C 16,1 km/h
18.11.2017 11:27 6,7 C 78 % 1020,1 hPa 0,0 l/m 4,1 km/h W-NW 292 3 min 1,2 UV-I 230 W/m 3,1 C 6,7 C 9,7 km/h
18.11.2017 11:24 6,7 C 78 % 1020,1 hPa 0,0 l/m 7,5 km/h NW 310 0 min 1,1 UV-I 211 W/m 3,1 C 5,8 C 14,5 km/h
18.11.2017 11:21 6,8 C 78 % 1020,2 hPa 0,0 l/m 5,6 km/h NW 318 0 min 1,1 UV-I 213 W/m 3,2 C 6,8 C 11,3 km/h
18.11.2017 11:18 6,8 C 79 % 1020,3 hPa 0,0 l/m 6,8 km/h N-NW 333 3 min 1,1 UV-I 221 W/m 3,4 C 6,5 C 11,3 km/h
18.11.2017 11:15 6,8 C 80 % 1020,4 hPa 0,0 l/m 6,7 km/h NW 324 3 min 1,2 UV-I 232 W/m 3,6 C 6,6 C 11,3 km/h
18.11.2017 11:12 6,7 C 81 % 1020,4 hPa 0,0 l/m 7,0 km/h NW 314 3 min 1,2 UV-I 397 W/m 3,7 C 6,2 C 11,3 km/h
18.11.2017 11:09 6,5 C 81 % 1020,5 hPa 0,0 l/m 5,8 km/h N-NW 338 3 min 1,4 UV-I 396 W/m 3,5 C 6,5 C 12,9 km/h
18.11.2017 11:06 6,4 C 81 % 1020,5 hPa 0,0 l/m 3,7 km/h NW 319 3 min 1,4 UV-I 503 W/m 3,4 C 6,4 C 8,0 km/h
18.11.2017 11:03 6,3 C 82 % 1020,6 hPa 0,0 l/m 7,2 km/h NW 306 3 min 1,3 UV-I 348 W/m 3,5 C 5,6 C 12,9 km/h
18.11.2017 11:00 6,3 C 83 % 1020,7 hPa 0,0 l/m 7,4 km/h W-NW 292 3 min 1,4 UV-I 461 W/m 3,6 C 5,5 C 16,1 km/h
18.11.2017 10:57 6,1 C 83 % 1020,7 hPa 0,0 l/m 9,1 km/h N-NW 332 3 min 1,4 UV-I 508 W/m 3,4 C 3,9 C 16,1 km/h
18.11.2017 10:54 6,0 C 83 % 1020,7 hPa 0,0 l/m 9,3 km/h W-NW 299 3 min 1,3 UV-I 366 W/m 3,3 C 3,7 C 17,7 km/h
18.11.2017 10:51 5,9 C 83 % 1020,7 hPa 0,0 l/m 8,3 km/h W 262 3 min 1,3 UV-I 350 W/m 3,2 C 4,3 C 17,7 km/h
18.11.2017 10:48 5,9 C 83 % 1020,8 hPa 0,0 l/m 5,2 km/h NW 304 3 min 1,3 UV-I 357 W/m 3,2 C 5,9 C 11,3 km/h
18.11.2017 10:45 5,8 C 84 % 1020,8 hPa 0,0 l/m 5,6 km/h NW 312 3 min 1,4 UV-I 315 W/m 3,3 C 5,8 C 11,3 km/h
18.11.2017 10:42 5,8 C 84 % 1020,9 hPa 0,0 l/m 6,3 km/h W-NW 289 3 min 1,2 UV-I 290 W/m 3,3 C 5,8 C 12,9 km/h
18.11.2017 10:39 5,6 C 84 % 1020,9 hPa 0,0 l/m 6,2 km/h N-NW 330 3 min 1,2 UV-I 315 W/m 3,1 C 5,6 C 11,3 km/h
18.11.2017 10:36 5,6 C 85 % 1021,0 hPa 0,0 l/m 9,7 km/h N-NW 331 3 min 1,2 UV-I 348 W/m 3,3 C 2,9 C 22,5 km/h
18.11.2017 10:33 5,4 C 84 % 1021,0 hPa 0,0 l/m 8,7 km/h NW 313 3 min 1,3 UV-I 364 W/m 2,9 C 3,5 C 14,5 km/h
18.11.2017 10:30 5,4 C 85 % 1021,0 hPa 0,0 l/m 14,0 km/h W-NW 294 3 min 1,2 UV-I 255 W/m 3,1 C 0,1 C 27,4 km/h
18.11.2017 10:27 5,3 C 85 % 1021,1 hPa 0,0 l/m 13,2 km/h NW 311 3 min 1,2 UV-I 364 W/m 3,0 C 0,4 C 22,5 km/h
18.11.2017 10:24 5,2 C 86 % 1021,1 hPa 0,0 l/m 10,9 km/h NW 317 3 min 1,2 UV-I 352 W/m 3,1 C 1,7 C 16,1 km/h
18.11.2017 10:21 5,2 C 86 % 1021,1 hPa 0,0 l/m 9,2 km/h W-NW 287 3 min 1,1 UV-I 248 W/m 3,1 C 2,9 C 19,3 km/h
18.11.2017 10:18 5,1 C 87 % 1021,1 hPa 0,0 l/m 6,8 km/h N-NW 342 3 min 1,1 UV-I 320 W/m 3,1 C 4,8 C 12,9 km/h
18.11.2017 10:15 5,1 C 87 % 1021,1 hPa 0,0 l/m 8,1 km/h W 265 3 min 1,1 UV-I 271 W/m 3,1 C 3,6 C 19,3 km/h
18.11.2017 10:12 5,0 C 88 % 1021,1 hPa 0,0 l/m 9,0 km/h N-NW 334 3 min 1,1 UV-I 385 W/m 3,2 C 2,8 C 14,5 km/h
18.11.2017 10:09 4,9 C 88 % 1021,0 hPa 0,0 l/m 9,2 km/h N-NW 332 3 min 1,0 UV-I 209 W/m 3,1 C 2,5 C 16,1 km/h
18.11.2017 10:06 4,9 C 88 % 1021,1 hPa 0,0 l/m 8,7 km/h N 355 3 min 1,0 UV-I 193 W/m 3,1 C 2,9 C 14,5 km/h
18.11.2017 10:03 4,8 C 89 % 1021,1 hPa 0,0 l/m 8,7 km/h N-NW 331 3 min 1,0 UV-I 200 W/m 3,1 C 2,8 C 14,5 km/h
18.11.2017 10:00 4,8 C 89 % 1021,2 hPa 0,0 l/m 9,3 km/h N-NW 335 3 min 1,0 UV-I 199 W/m 3,1 C 2,4 C 20,9 km/h
18.11.2017 09:57 4,7 C 90 % 1021,2 hPa 0,0 l/m 9,9 km/h W-NW 289 3 min 1,0 UV-I 193 W/m 3,2 C 1,8 C 17,7 km/h
18.11.2017 09:54 4,6 C 90 % 1021,2 hPa 0,0 l/m 5,2 km/h N-NW 327 3 min 1,0 UV-I 306 W/m 3,1 C 4,6 C 11,3 km/h
18.11.2017 09:51 4,6 C 90 % 1021,2 hPa 0,0 l/m 6,5 km/h N-NW 344 3 min 0,9 UV-I 348 W/m 3,1 C 4,5 C 12,9 km/h
18.11.2017 09:48 4,4 C 91 % 1021,2 hPa 0,0 l/m 9,1 km/h N-NW 348 3 min 1,0 UV-I 348 W/m 3,1 C 2,1 C 14,5 km/h
18.11.2017 09:45 4,4 C 91 % 1021,2 hPa 0,0 l/m 7,8 km/h NW 313 3 min 0,9 UV-I 257 W/m 3,1 C 3,1 C 14,5 km/h
18.11.2017 09:42 4,3 C 91 % 1021,2 hPa 0,0 l/m 8,0 km/h W-NW 292 3 min 0,9 UV-I 251 W/m 3,0 C 2,9 C 16,1 km/h
18.11.2017 09:39 4,3 C 92 % 1021,3 hPa 0,0 l/m 6,9 km/h NW 321 0 min 0,9 UV-I 139 W/m 3,1 C 3,9 C 14,5 km/h
18.11.2017 09:36 4,2 C 92 % 1021,2 hPa 0,0 l/m 6,9 km/h N-NW 338 3 min 0,9 UV-I 218 W/m 3,0 C 3,8 C 12,9 km/h
18.11.2017 09:33 4,1 C 93 % 1021,3 hPa 0,0 l/m 6,6 km/h N-NW 342 3 min 0,8 UV-I 243 W/m 3,1 C 3,9 C 16,1 km/h
18.11.2017 09:30 3,9 C 93 % 1021,2 hPa 0,0 l/m 6,5 km/h N-NW 327 3 min 0,8 UV-I 269 W/m 2,9 C 3,8 C 16,1 km/h
18.11.2017 09:27 3,8 C 93 % 1021,2 hPa 0,0 l/m 5,8 km/h N-NW 342 3 min 0,8 UV-I 239 W/m 2,8 C 3,8 C 8,0 km/h
18.11.2017 09:24 3,8 C 93 % 1021,2 hPa 0,0 l/m 7,2 km/h N 355 3 min 0,8 UV-I 255 W/m 2,8 C 3,1 C 11,3 km/h
18.11.2017 09:21 3,7 C 93 % 1021,2 hPa 0,0 l/m 5,6 km/h N 360 3 min 0,7 UV-I 200 W/m 2,7 C 3,7 C 9,7 km/h
18.11.2017 09:18 3,6 C 93 % 1021,3 hPa 0,0 l/m 4,6 km/h N 360 3 min 0,7 UV-I 160 W/m 2,6 C 3,6 C 8,0 km/h
18.11.2017 09:15 3,5 C 93 % 1021,3 hPa 0,0 l/m 4,1 km/h N 5 3 min 0,7 UV-I 160 W/m 2,5 C 3,5 C 8,0 km/h
18.11.2017 09:12 3,4 C 93 % 1021,4 hPa 0,0 l/m 3,9 km/h N 5 3 min 0,7 UV-I 179 W/m 2,4 C 3,4 C 8,0 km/h
18.11.2017 09:09 3,3 C 93 % 1021,4 hPa 0,0 l/m 2,7 km/h N-NW 329 3 min 0,7 UV-I 163 W/m 2,3 C 3,3 C 8,0 km/h
18.11.2017 09:06 3,3 C 93 % 1021,4 hPa 0,0 l/m 4,1 km/h NW 311 3 min 0,5 UV-I 221 W/m 2,3 C 3,3 C 8,0 km/h
18.11.2017 09:03 3,2 C 93 % 1021,4 hPa 0,0 l/m 4,6 km/h NW 319 0 min 0,5 UV-I 125 W/m 2,2 C 3,2 C 9,7 km/h
18.11.2017 09:00 3,2 C 93 % 1021,5 hPa 0,0 l/m 5,7 km/h N-NO 27 0 min 0,5 UV-I 114 W/m 2,2 C 3,2 C 12,9 km/h
18.11.2017 08:57 3,1 C 93 % 1021,5 hPa 0,0 l/m 4,6 km/h N-NW 339 0 min 0,5 UV-I 123 W/m 2,1 C 3,1 C 8,0 km/h
18.11.2017 08:54 3,1 C 93 % 1021,5 hPa 0,0 l/m 3,1 km/h N-NW 341 0 min 0,5 UV-I 70 W/m 2,1 C 3,1 C 4,8 km/h
18.11.2017 08:51 3,1 C 93 % 1021,6 hPa 0,0 l/m 3,3 km/h N-NW 341 0 min 0,0 UV-I 72 W/m 2,1 C 3,1 C 6,4 km/h
18.11.2017 08:48 3,1 C 93 % 1021,5 hPa 0,0 l/m 1,5 km/h N-NW 341 0 min 0,0 UV-I 76 W/m 2,1 C 3,1 C 3,2 km/h
18.11.2017 08:45 3,0 C 93 % 1021,6 hPa 0,0 l/m 3,3 km/h N-NW 341 0 min 0,0 UV-I 100 W/m 2,0 C 3,0 C 4,8 km/h
18.11.2017 08:42 3,0 C 93 % 1021,6 hPa 0,0 l/m 1,9 km/h N-NW 341 0 min 0,0 UV-I 79 W/m 2,0 C 3,0 C 4,8 km/h
18.11.2017 08:39 3,0 C 93 % 1021,6 hPa 0,0 l/m 0,6 km/h N-NW 341 0 min 0,0 UV-I 67 W/m 2,0 C 3,0 C 3,2 km/h
18.11.2017 08:36 3,0 C 93 % 1021,6 hPa 0,0 l/m 2,9 km/h N-NW 341 0 min 0,0 UV-I 69 W/m 2,0 C 3,0 C 4,8 km/h
18.11.2017 08:33 3,0 C 93 % 1021,6 hPa 0,0 l/m 2,6 km/h N-NW 341 0 min 0,0 UV-I 72 W/m 2,0 C 3,0 C 4,8 km/h
18.11.2017 08:30 2,9 C 92 % 1021,6 hPa 0,0 l/m 0,7 km/h N-NW 341 0 min 0,0 UV-I 70 W/m 1,7 C 2,9 C 3,2 km/h
18.11.2017 08:27 2,9 C 92 % 1021,6 hPa 0,0 l/m 2,0 km/h N-NW 341 0 min 0,0 UV-I 63 W/m 1,7 C 2,9 C 3,2 km/h
18.11.2017 08:24 2,9 C 92 % 1021,7 hPa 0,0 l/m 2,9 km/h N-NW 341 0 min 0,0 UV-I 51 W/m 1,7 C 2,9 C 4,8 km/h
18.11.2017 08:21 2,9 C 92 % 1021,6 hPa 0,0 l/m 3,0 km/h N-NW 341 0 min 0,0 UV-I 49 W/m 1,7 C 2,9 C 4,8 km/h
18.11.2017 08:18 2,9 C 92 % 1021,6 hPa 0,0 l/m 3,9 km/h N-NW 341 0 min 0,0 UV-I 51 W/m 1,7 C 2,9 C 6,4 km/h
18.11.2017 08:15 2,9 C 92 % 1021,6 hPa 0,0 l/m 3,9 km/h N-NW 341 0 min 0,0 UV-I 56 W/m 1,7 C 2,9 C 6,4 km/h
18.11.2017 08:12 2,9 C 92 % 1021,6 hPa 0,0 l/m 3,2 km/h N-NW 341 0 min 0,0 UV-I 56 W/m 1,7 C 2,9 C 4,8 km/h
_ Min-Zeit 20:42 13:12 12:42 - 07:36 - - - - - 15:45 19:00 21:00
Minimum _ 2,7 C 77 % 1019,3 hPa - 0,6 km/h - - - - - 0,6 C -2,6 C 3,2 km/h
_ Max-Zeit 12:00 21:03 21:06 13:00 11:48 - - 13:00 10:45 10:57 11:12 12:12 13:57
Maximum _ 7,0 C 93 % 1024,4 hPa 0,0 l/m 14,7 km/h
NW
- - 3 min 1,4 UV-I 508 W/m 3,7 C 6,9 C 29,0 km/h
SW
Durchschnitt _ 3,6 C 87 % 1022,9 hPa #0,0 l/m 6,8 km/h N-NW - #3:00 h 1,0 UV-I 192 W/m 1,7 C 2,6 C 12,9 km/h
Schulla EDV